Location: *
(43.9900°N, 3.4811°E)
Time: 08:55:18
(UTC+00:00)

Cosmos 2322 Rocket - Pass Details

Date: 25 August 2019
Orbit: 834 x 850 km, 71.0° (Epoch: 19 September)

Event Time Altitude Azimuth Distance (km) Brightness Sun altitude
Rises 22:32:39 0° 331° (NNW) 3,398 6.4 -32.8°
Reaches altitude 10° 22:35:08 10° 328° (NNW) 2,458 5.4 -32.9°
Enters shadow 22:39:05 43° 305° (NW) 1,154 3.1 -33.2°
